[[{"header":{"parameterUnit":"m.s-1","parameterCategory":1,"la1":30.2991,"la2":30.254,"lo1":-89.0895,"lo2":-89.0444,"dy":0.0017,"dx":0.0017,"nx":28,"ny":28,"refTime":"2024-11-28T03:00:00:Z","depth":0,"parameterNumber":2,"parameterNumberName":"U-component_of_WINDS"},"data":[0,0,0,0,0,0,0,0,0,0,0,0,0,0,0,0,0,0,0,0,0,0,0,0,0,0,0,0,0,0,0,0,0,0,0,0,0,0,0,0,0,0,0,0,0,0,0,0,0,0,0,0,0,0,0,0,0,0,3.5915,3.5916,0,3.6017,3.6018,3.6019,3.6004,3.6003,3.6001,3.5999,3.6107,3.6112,3.6116,0,0,0,0,0,0,0,0,0,0,0,0,0,3.5713,3.5717,3.5915,3.5916,3.5918,3.6017,3.6018,3.602,3.6005,3.6002,3.6,3.5998,3.6106,3.6111,3.6117,0,0,0,0,0,0,0,0,0,0,0,0,0,3.5806,3.5718,3.5915,3.5922,3.5924,3.6017,3.6018,3.602,3.6005,3.6002,3.6,3.5997,3.6104,3.6111,3.6117,3.6211,0,0,3.6138,3.6141,0,0,0,0,0,0,0,0,3.5801,3.5814,3.592,3.5922,3.5924,3.5995,3.5986,3.6084,3.6006,3.5974,3.5999,3.5996,3.6072,3.6082,3.6106,3.6216,3.622,3.6138,3.6143,3.6145,3.6147,0,0,0,0,0,0,0,3.5795,3.5809,3.5956,3.5921,3.5924,3.5922,3.5932,3.6005,3.6037,3.5977,3.5976,3.5988,3.6073,3.61,3.6109,3.6222,3.6138,3.6144,3.6148,3.6151,3.6415,3.6418,0,0,0,0,0,0,3.5786,3.5804,3.5952,3.5959,3.5855,3.5928,3.5939,3.5975,3.6036,3.6043,3.599,3.5987,3.609,3.6101,3.6113,3.6227,3.6145,3.6152,3.6156,3.6412,3.6416,3.6419,0,0,0,0,0,0,3.5781,3.5799,3.5948,3.5881,3.59,3.5934,3.5974,3.5978,3.6005,3.6046,3.6052,3.6011,3.6088,3.6103,3.6187,3.623,3.6155,3.6161,3.6409,3.6413,3.6417,3.6455,0,0,0,0,0,0,3.5775,3.5797,3.5832,3.5882,3.5904,3.6019,3.5977,3.5982,3.6016,3.6013,3.6067,3.6074,3.6087,3.6177,3.6193,3.6238,3.6166,3.6405,3.6411,3.6416,3.645,3.646,3.6469,0,0,0,0,0,3.5768,3.5839,3.5834,3.5852,3.5947,3.6021,3.6034,3.6046,3.602,3.6056,3.6082,3.6072,3.6223,3.6185,3.6204,3.6251,3.6402,3.6409,3.6415,3.6446,3.6458,3.6469,0,0,0,0,0,0,3.5794,3.5846,3.584,3.5929,3.5971,3.6019,3.6064,3.6059,3.611,3.6105,3.612,3.6133,3.6217,3.6243,3.62,3.6346,3.6309,3.632,3.6326,3.6338,3.6347,3.6339,3.6172,0,0,0,0,0,3.581,3.5864,3.5907,3.5982,3.6003,3.603,3.6063,3.6069,3.6113,3.6131,3.6164,3.6209,3.6266,3.6304,3.6359,3.6454,3.6467,3.6496,3.6506,3.6513,3.6523,3.6576,3.659,3.6441,3.6441,3.6441,0,0,3.5843,3.5878,3.5912,3.5988,3.6021,3.6078,3.6045,3.6107,3.6151,3.6141,3.6221,3.6247,3.6298,3.6389,3.643,3.6413,3.6567,3.6522,3.6528,3.6533,3.6585,3.6599,3.6611,3.6445,3.6445,3.6444,0,0,3.5934,3.5965,3.6031,3.6065,3.6116,3.6134,3.615,3.6199,3.6215,3.6296,3.629,3.6344,3.6442,3.6479,3.651,3.6617,3.6611,3.6635,3.6684,3.6737,3.6748,3.6759,3.6798,3.6811,3.6644,3.6644,3.6644,0,3.5969,3.6055,3.6066,3.6129,3.6163,3.6157,3.6225,3.6258,3.6324,3.6349,3.6328,3.6452,3.6486,3.6585,3.6612,3.6637,3.6657,3.6628,3.6746,3.6756,3.6766,3.6804,3.6818,3.6647,3.6646,3.6646,3.6646,0,3.6096,3.6156,3.6203,3.6267,3.6306,3.6372,3.6394,3.6434,3.6437,3.6458,3.6541,3.6582,3.6646,3.667,3.6674,3.6771,3.6759,3.6742,3.6705,3.6783,3.6818,3.6833,3.6651,3.665,3.6649,3.6648,0,0,3.6204,3.6274,3.6291,3.6321,3.6377,3.6424,3.649,3.6551,3.6585,3.6632,3.6688,3.6773,3.6758,3.6794,3.6803,3.6849,3.6932,3.6827,3.6828,3.6845,3.7042,3.7054,3.707,3.6928,3.6931,3.6933,3.7038,0,3.63,3.6415,3.6428,3.6531,3.6587,3.6583,3.6641,3.6683,3.6705,3.6757,3.6781,3.6841,3.6817,3.6839,3.6884,3.6912,3.6972,3.6905,3.6982,3.6985,3.6969,3.7088,3.7101,3.7198,3.7052,3.7054,3.7056,0,3.6427,3.6477,3.6585,3.6635,3.6659,3.671,3.6768,3.6818,3.6866,3.6879,3.692,3.6923,3.6993,3.6954,3.7052,3.7006,3.7039,3.7058,3.7062,3.7069,3.7024,3.7099,3.7229,3.7243,3.7077,3.7076,3.7074,0,3.6495,3.6589,3.6667,3.6692,3.6752,3.6788,3.6815,3.6861,3.6897,3.6949,3.6973,3.7033,3.7066,3.7113,3.7133,3.7102,3.723,3.7192,3.7243,3.7243,3.727,3.7268,3.7406,3.7291,3.7291,3.7291,3.7291,0,3.6601,3.6667,3.6698,3.6746,3.6821,3.6837,3.6911,3.6937,3.6978,3.7032,3.7033,3.7084,3.7107,3.7162,3.7178,3.7258,3.7272,3.7286,3.7289,3.7285,3.7284,3.7307,3.7301,3.7295,3.7294,3.7293,3.7293,0,3.6689,3.6712,3.6796,3.6846,3.6861,3.6914,3.6958,3.7005,3.7027,3.7095,3.7112,3.7147,3.7212,3.7236,3.7316,3.7327,3.7419,3.7417,3.7402,3.7403,3.7453,3.7448,3.7611,3.7634,3.7504,3.7505,3.7506,0,3.6754,3.6805,3.6861,3.6897,3.6925,3.6982,3.7019,3.7038,3.7077,3.7137,3.7178,3.7242,3.7294,3.7399,3.7432,3.7494,3.7494,3.7547,3.7503,3.7498,3.7495,3.7491,3.7497,3.7554,3.7556,3.7557,3.7558,0,3.6868,3.6878,3.6931,3.6989,3.7033,3.708,3.7126,3.7155,3.7181,3.7226,3.7291,3.7332,3.7414,3.7478,3.7542,3.7571,3.757,3.7571,3.7587,3.7583,3.7572,3.7579,3.7424,3.7567,3.7566,3.7566,3.7565,3.7565,3.6947,3.6993,3.7039,3.7099,3.7136,3.7179,3.7225,3.7253,3.7308,3.7375,3.7383,3.7455,3.7504,3.7589,3.7621,3.7678,3.7664,3.7686,3.7692,3.7697,3.7701,3.7564,3.769,3.769,3.769,3.769,3.7689,0,3.7061,3.7091,3.7146,3.721,3.7257,3.7251,3.7302,3.7342,3.7405,3.745,3.7502,3.7579,3.7642,3.7681,3.7745,3.7783,3.7784,3.78,3.7797,3.7804,3.7709,3.769,3.7798,3.7798,3.7798,3.7798,3.7798,3.7798,3.7126,3.7203,3.7218,3.7314,3.7345,3.7413,3.7443,3.7484,3.752,3.7605,3.7658,3.7682,3.7726,3.7793,3.7852,3.7862,3.7886,3.7902,3.7911,3.7822,3.781,3.78,3.7781,3.7907,3.7907,3.8001,3.8002,3.8002]},{"header":{"parameterUnit":"m.s-1","parameterCategory":1,"la1":30.2991,"la2":30.254,"lo1":-89.0895,"lo2":-89.0444,"dy":0.0017,"dx":0.0017,"nx":28,"ny":28,"refTime":"2024-11-28T03:00:00:Z","depth":0,"parameterNumber":3,"parameterNumberName":"V-component_of_WINDS"},"data":[0,0,0,0,0,0,0,0,0,0,0,0,0,0,0,0,0,0,0,0,0,0,0,0,0,0,0,0,0,0,0,0,0,0,0,0,0,0,0,0,0,0,0,0,0,0,0,0,0,0,0,0,0,0,0,0,0,0,3.5676,3.5678,0,3.5856,3.5858,3.586,3.5898,3.5897,3.5896,3.5894,3.608,3.6086,3.6092,0,0,0,0,0,0,0,0,0,0,0,0,0,3.5369,3.5375,3.5676,3.5678,3.5681,3.5856,3.5858,3.5861,3.5899,3.5897,3.5895,3.5894,3.6078,3.6085,3.6092,0,0,0,0,0,0,0,0,0,0,0,0,0,3.5521,3.5377,3.5676,3.5721,3.5727,3.5855,3.5858,3.5861,3.5899,3.5897,3.5895,3.5893,3.6075,3.6084,3.6093,3.619,0,0,3.6122,3.6126,0,0,0,0,0,0,0,0,3.5512,3.5532,3.5712,3.5718,3.5725,3.5853,3.5818,3.5972,3.5899,3.5834,3.5894,3.5892,3.6006,3.6021,3.6059,3.6199,3.6207,3.6123,3.6128,3.6132,3.6135,0,0,0,0,0,0,0,3.5502,3.5525,3.5747,3.5714,3.5722,3.5733,3.5752,3.5847,3.5929,3.5839,3.5842,3.5863,3.6009,3.605,3.6063,3.621,3.6122,3.613,3.6136,3.614,3.6441,3.6444,0,0,0,0,0,0,3.5483,3.5516,3.5742,3.5753,3.5611,3.574,3.5762,3.5814,3.5928,3.5943,3.5865,3.5864,3.6035,3.6053,3.607,3.6193,3.6132,3.6141,3.6146,3.6439,3.6442,3.6445,0,0,0,0,0,0,3.5476,3.5503,3.5734,3.5635,3.5666,3.5748,3.5805,3.5818,3.5859,3.5947,3.5962,3.5891,3.6034,3.6057,3.6161,3.62,3.6145,3.6153,3.6436,3.644,3.6443,3.6439,0,0,0,0,0,0,3.5467,3.55,3.5537,3.5636,3.5671,3.5821,3.5808,3.5823,3.5875,3.5876,3.5976,3.5991,3.6034,3.6147,3.617,3.6212,3.6161,3.6433,3.6438,3.6442,3.6436,3.6442,3.6447,0,0,0,0,0,3.5456,3.5528,3.5539,3.5566,3.5718,3.5823,3.5843,3.5892,3.5878,3.5916,3.5973,3.5987,3.6192,3.6157,3.6183,3.6229,3.6431,3.6436,3.6442,3.6433,3.6441,3.6447,0,0,0,0,0,0,3.5432,3.5542,3.5555,3.5661,3.5732,3.5829,3.5879,3.5898,3.5975,3.5973,3.6031,3.6053,3.6154,3.6201,3.6161,3.633,3.6311,3.6322,3.6295,3.6303,3.6308,3.6296,3.6168,0,0,0,0,0,3.5439,3.5514,3.5606,3.5691,3.5726,3.5797,3.5844,3.5876,3.5952,3.5983,3.6047,3.6122,3.6203,3.6255,3.6335,3.6443,3.6466,3.6487,3.6492,3.6497,3.6506,3.6569,3.658,3.6463,3.6463,3.6463,0,0,3.5454,3.5524,3.5567,3.5688,3.5747,3.5825,3.5822,3.5904,3.5963,3.5996,3.6098,3.6148,3.6235,3.6342,3.6392,3.6384,3.6544,3.6504,3.6506,3.6514,3.6576,3.6587,3.6597,3.6467,3.6466,3.6465,0,0,3.5522,3.5581,3.5659,3.5719,3.5809,3.5856,3.5874,3.5969,3.6004,3.6107,3.6134,3.6205,3.6344,3.6406,3.6455,3.6548,3.6565,3.6572,3.6602,3.6663,3.6672,3.6681,3.6716,3.6728,3.6581,3.6581,3.6581,0,3.553,3.5648,3.5697,3.5779,3.5832,3.5865,3.5946,3.6002,3.6113,3.615,3.614,3.6316,3.6376,3.6499,3.6522,3.656,3.6585,3.6562,3.6667,3.6676,3.6685,3.6719,3.6732,3.6582,3.6582,3.6582,3.6582,0,3.5654,3.5735,3.5788,3.5895,3.5954,3.6035,3.6098,3.6152,3.6179,3.6226,3.6333,3.6407,3.6503,3.6534,3.6561,3.6662,3.6655,3.6655,3.6637,3.6696,3.6729,3.6742,3.6582,3.6582,3.6582,3.6582,0,0,3.5711,3.5846,3.5865,3.5915,3.6017,3.6082,3.6165,3.6259,3.6305,3.6381,3.6453,3.657,3.6572,3.6628,3.6662,3.6715,3.6787,3.671,3.6713,3.6723,3.6906,3.6906,3.6921,3.6799,3.6801,3.6803,3.6899,0,3.5793,3.5942,3.599,3.6115,3.6192,3.6225,3.6298,3.637,3.6417,3.649,3.6543,3.6626,3.662,3.6655,3.6709,3.6767,3.6825,3.6761,3.6868,3.6872,3.6847,3.6938,3.6938,3.7025,3.6913,3.6915,3.6916,0,3.5908,3.5987,3.6119,3.6214,3.6248,3.6312,3.6404,3.6473,3.6556,3.6587,3.665,3.668,3.677,3.6746,3.6872,3.6827,3.6874,3.6909,3.6914,3.6927,3.6898,3.6955,3.7054,3.7067,3.6937,3.6936,3.6934,0,3.5939,3.6078,3.6176,3.6217,3.633,3.6375,3.6424,3.6504,3.6559,3.6639,3.6675,3.6764,3.6814,3.6883,3.6937,3.6914,3.7059,3.7038,3.7088,3.7087,3.7118,3.7116,3.7227,3.7145,3.7145,3.7145,3.7144,0,3.6026,3.6107,3.6192,3.6252,3.6343,3.6399,3.6488,3.6539,3.6611,3.6683,3.6717,3.6784,3.685,3.6927,3.6969,3.7068,3.709,3.7118,3.7129,3.7117,3.7113,3.7149,3.7145,3.7148,3.7148,3.7147,3.7146,0,3.6077,3.6137,3.6246,3.6344,3.6371,3.6434,3.6519,3.6579,3.6628,3.6719,3.6744,3.6821,3.6913,3.6974,3.709,3.7119,3.7228,3.7236,3.72,3.7205,3.7253,3.7248,3.7393,3.7415,3.7316,3.7317,3.7318,0,3.6129,3.6192,3.6297,3.6348,3.6397,3.6478,3.6534,3.6591,3.6648,3.6748,3.6797,3.6891,3.697,3.7115,3.7182,3.7272,3.7284,3.7329,3.7298,3.7284,3.7288,3.7284,3.7292,3.7334,3.7335,3.7335,3.7336,0,3.6216,3.6243,3.6322,3.6413,3.6479,3.6553,3.6627,3.6666,3.6737,3.68,3.6894,3.6955,3.7075,3.7169,3.7265,3.7317,3.7339,3.7345,3.7362,3.735,3.7328,3.7343,3.7215,3.7342,3.7341,3.7341,3.734,3.734,3.6271,3.6329,3.6413,3.6501,3.6563,3.6632,3.6694,3.6752,3.6831,3.6934,3.6963,3.7062,3.7145,3.7277,3.7331,3.741,3.7405,3.7429,3.7435,3.7441,3.7442,3.7314,3.7427,3.7427,3.7427,3.7427,3.7427,0,3.6362,3.6418,3.6498,3.6601,3.6671,3.6685,3.6768,3.6826,3.6912,3.6988,3.7065,3.7175,3.7266,3.7341,3.7436,3.7485,3.7498,3.7508,3.7506,3.7518,3.744,3.7417,3.7496,3.7496,3.7496,3.7496,3.7496,3.7496,3.6417,3.6517,3.6555,3.6687,3.6742,3.684,3.6886,3.6951,3.7012,3.7133,3.7209,3.7257,3.7334,3.7435,3.752,3.754,3.7574,3.7583,3.7605,3.7531,3.7523,3.7516,3.7495,3.7589,3.7589,3.7677,3.7677,3.7678]}]]